Change the Weather History Date:

Saturday, March 1, 2014

  Actual Average Record
Temperature  
Mean Temperature 2 °F 26 °F  
Max Temperature 11 °F 35 °F 63 °F (1923)
Min Temperature -7 °F 18 °F -28 °F (1962)
Degree Days  
Heating Degree Days 63 39  
Month to date heating degree days 63 39  
Since 1 July heating degree days 6609 5890  
Cooling Degree Days 0 0  
Month to date cooling degree days 0 0  
Year to date cooling degree days 0 0  
Moisture  
Dew Point -6 °F    
Average Humidity 79    
Maximum Humidity 87    
Minimum Humidity 71    
Precipitation  
Precipitation 0.14 in 0.05 in 0.82 in (2007)
Month to date precipitation 0.14 0.05  
Year to date precipitation 3.16 1.87  
Snow  
Snow 1.50 in 0.20 in 8.20 in (2007)
Month to date snowfall 1.5 0.2  
Since 1 July snowfall 47.6 32.7  
Snow Depth 18.00 in    
Sea Level Pressure  
Sea Level Pressure 30.38 in    
Wind  
Wind Speed 20 mph (NNW)    
Max Wind Speed 26 mph    
Max Gust Speed 31 mph    
Visibility 4 miles    
Events Snow    
T = Trace of Precipitation, MM = Missing Value Source: NWS Daily Summary

Daily Weather History Graph

Daily Weather History Graph

Search for Another Location

Airport or City:

Trip Planner

Search our weather history database for the weather conditions in past years. The results will help you decide how hot, cold, wet, or windy it might be!

Date:

Astronomy

Mar. 01, 2014 Rise Set
Actual Time 6:49 AM CST 6:02 PM CST
Civil Twilight 6:20 AM CST 6:31 PM CST
Nautical Twilight 5:47 AM CST 7:04 PM CST
Astronomical Twilight 5:14 AM CST 7:37 PM CST
Moon 6:42 AM CST (3/1) 6:53 PM CST (3/1)
Length of Visible Light 12h 10m
Length of Day
11h 13m
New Moon, 0% of the Moon is Illuminated
Mar 1
New Moon
Mar 8
First Quarter
Mar 16
Full
Mar 23
Last Quarter
Mar 30
New

Hourly Weather History & Observations

Time (CST) Temp. Windchill Dew Point Humidity Pressure Visibility Wind Dir Wind Speed Gust Speed Precip Events Conditions
12:53 AM 8.1 °F -13.0 °F 3.0 °F 80% 30.18 in 7.0 mi NNW 24.2 mph - 0.00 in   Overcast
1:10 AM 8.1 °F -11.7 °F 3.0 °F 80% 30.13 in 8.0 mi NNW 20.7 mph - N/A   Overcast
1:46 AM 7.0 °F -12.6 °F 3.0 °F 84% 30.14 in 8.0 mi NNW 19.6 mph - N/A   Overcast
1:53 AM 7.0 °F -12.6 °F 1.9 °F 80% 30.21 in 10.0 mi NNW 19.6 mph - N/A   Overcast
2:39 AM 6.1 °F -13.3 °F 1.9 °F 83% 30.19 in 8.0 mi NW 18.4 mph - N/A   Overcast
2:53 AM 5.0 °F -15.7 °F 1.0 °F 84% 30.26 in 8.0 mi NNW 20.7 mph - N/A   Overcast
3:21 AM 3.9 °F -19.4 °F -0.0 °F 84% 30.20 in 4.0 mi NNW 26.5 mph 31.1 mph N/A   Overcast
3:44 AM 1.9 °F -20.2 °F -2.0 °F 83% 30.22 in 5.0 mi NNW 21.9 mph - N/A   Overcast
3:53 AM 1.9 °F -19.8 °F -2.0 °F 83% 30.28 in 8.0 mi NNW 20.7 mph - N/A   Overcast
4:01 AM 1.9 °F -19.2 °F -2.9 °F 80% 30.22 in 8.0 mi NNW 19.6 mph - N/A   Overcast
4:10 AM 1.9 °F -19.2 °F -2.9 °F 80% 30.21 in 9.0 mi NNW 19.6 mph - N/A   Overcast
4:53 AM 1.0 °F -20.9 °F -2.9 °F 83% 30.28 in 9.0 mi NNW 20.7 mph - N/A   Overcast
5:28 AM 1.0 °F -21.9 °F -4.0 °F 79% 30.24 in 7.0 mi NNW 23.0 mph - N/A   Overcast
5:53 AM -0.0 °F -23.3 °F -4.0 °F 83% 30.32 in 5.0 mi NNW 23.0 mph - N/A   Mostly Cloudy
6:53 AM -0.0 °F -22.9 °F -5.1 °F 79% 30.35 in 9.0 mi North 21.9 mph - N/A   Mostly Cloudy
7:53 AM -0.0 °F -21.8 °F -5.1 °F 79% 30.39 in 3.0 mi NNW 19.6 mph - N/A   Haze
8:28 AM -0.9 °F -23.0 °F -5.1 °F 83% 30.35 in 1.5 mi NNW 19.6 mph - 0.00 in Snow Light Snow
8:38 AM -0.9 °F -23.5 °F -5.1 °F 83% 30.34 in 0.8 mi NNW 20.7 mph - 0.00 in Snow Light Snow
8:49 AM -0.4 °F -22.8 °F -5.8 °F 78% 30.34 in 0.8 mi North 20.7 mph - 0.00 in Snow Light Snow
8:53 AM -0.0 °F -22.4 °F -5.1 °F 79% 30.40 in 0.8 mi North 20.7 mph - 0.00 in Snow Light Snow
9:18 AM -0.0 °F -21.8 °F -5.1 °F 79% 30.33 in 1.0 mi North 19.6 mph - 0.00 in Snow Light Snow
9:30 AM -0.0 °F -21.3 °F -5.1 °F 79% 30.34 in 1.2 mi North 18.4 mph - 0.00 in Snow Light Snow
9:53 AM -0.0 °F -21.3 °F -5.1 °F 79% 30.43 in 1.0 mi North 18.4 mph - 0.00 in Snow Light Snow
10:03 AM -0.0 °F -21.3 °F -4.0 °F 83% 30.36 in 0.8 mi NNW 18.4 mph - 0.00 in Snow Light Snow
10:33 AM -0.0 °F -21.3 °F -5.1 °F 79% 30.38 in 1.0 mi NNW 18.4 mph - 0.00 in Snow Light Snow
10:45 AM -0.0 °F -20.1 °F -4.0 °F 83% 30.39 in 0.8 mi NNW 16.1 mph - 0.00 in Snow Light Snow
10:53 AM -0.0 °F -20.1 °F -4.0 °F 83% 30.48 in 0.8 mi NNW 16.1 mph - 0.00 in Snow Light Snow
11:12 AM -0.0 °F -20.7 °F -4.0 °F 83% 30.41 in 0.8 mi NNW 17.3 mph - 0.00 in Snow Light Snow
11:26 AM -0.0 °F -20.1 °F -5.1 °F 79% 30.40 in 1.0 mi NNW 16.1 mph - 0.00 in Snow Light Snow
11:53 AM -0.0 °F -21.3 °F -6.0 °F 76% 30.49 in 1.0 mi NW 18.4 mph - 0.00 in Snow Light Snow
12:12 PM -0.0 °F -20.1 °F -6.0 °F 76% 30.42 in 1.0 mi NNW 16.1 mph - 0.00 in Snow Light Snow
12:20 PM -0.0 °F -21.3 °F -6.0 °F 76% 30.42 in 1.0 mi NW 18.4 mph - 0.00 in Snow Light Snow
12:53 PM -0.0 °F -20.1 °F -6.0 °F 76% 30.47 in 1.2 mi NNW 16.1 mph - 0.00 in Snow Light Snow
1:03 PM -0.0 °F -18.7 °F -6.0 °F 76% 30.39 in 3.0 mi NNW 13.8 mph - 0.00 in Snow Light Snow
1:46 PM -0.0 °F -21.8 °F -7.1 °F 72% 30.39 in 4.0 mi NNW 19.6 mph - 0.00 in   Overcast
1:53 PM -0.0 °F -22.4 °F -6.0 °F 76% 30.47 in 3.0 mi NNW 20.7 mph - 0.00 in Snow Blowing Snow
2:34 PM -0.9 °F -23.0 °F -7.1 °F 75% 30.36 in 4.0 mi NNW 19.6 mph - N/A   Haze
2:45 PM -0.9 °F -24.1 °F -7.1 °F 75% 30.38 in 3.0 mi NNW 21.9 mph - N/A   Haze
2:53 PM -0.9 °F -22.4 °F -7.1 °F 75% 30.48 in 4.0 mi NNW 18.4 mph - N/A   Haze
3:18 PM -2.0 °F -23.9 °F -8.0 °F 76% 30.40 in 2.5 mi NNW 18.4 mph - 0.00 in Snow Light Snow
3:35 PM -2.0 °F -23.3 °F -7.1 °F 79% 30.39 in 3.0 mi NNW 17.3 mph - 0.00 in   Haze
3:44 PM -2.0 °F -24.4 °F -7.1 °F 79% 30.39 in 1.8 mi NNW 19.6 mph - 0.00 in Snow Light Snow
3:53 PM -2.0 °F -23.9 °F -8.0 °F 76% 30.47 in 1.5 mi NNW 18.4 mph - 0.00 in Snow Light Snow
4:03 PM -2.0 °F -23.9 °F -7.1 °F 79% 30.39 in 1.0 mi North 18.4 mph - 0.00 in Snow Light Snow
4:13 PM -2.0 °F -23.3 °F -7.1 °F 79% 30.39 in 0.8 mi NNW 17.3 mph - 0.00 in Snow Light Snow
4:20 PM -2.0 °F -25.0 °F -8.0 °F 76% 30.40 in 1.0 mi NNW 20.7 mph - 0.00 in Snow Light Snow
4:27 PM -2.0 °F -23.9 °F -8.0 °F 76% 30.40 in 0.8 mi NNW 18.4 mph - 0.00 in Snow Light Snow
4:53 PM -2.0 °F -23.9 °F -9.0 °F 72% 30.49 in 1.0 mi NNW 18.4 mph - 0.00 in Snow Light Snow
5:10 PM -2.0 °F -23.9 °F -9.0 °F 72% 30.41 in 3.0 mi NNW 18.4 mph - 0.00 in Snow Light Snow
5:17 PM -2.0 °F -24.4 °F -9.0 °F 72% 30.42 in 4.0 mi NNW 19.6 mph - 0.00 in   Haze
5:28 PM -2.9 °F -25.0 °F -9.0 °F 75% 30.41 in 1.8 mi NNW 18.4 mph - 0.00 in Snow Light Snow
5:36 PM -2.9 °F -25.6 °F -9.9 °F 72% 30.40 in 2.0 mi NNW 19.6 mph - 0.00 in Snow Light Snow
5:53 PM -2.9 °F -25.6 °F -9.0 °F 75% 30.49 in 3.0 mi NNW 19.6 mph - 0.00 in   Haze
6:42 PM -2.9 °F -25.6 °F -9.0 °F 75% 30.44 in 2.0 mi NNW 19.6 mph - 0.00 in Snow Light Snow
6:53 PM -2.9 °F -26.7 °F -9.0 °F 75% 30.53 in 2.5 mi NNW 21.9 mph - 0.00 in Snow Light Snow
7:05 PM -2.9 °F -26.1 °F -9.0 °F 75% 30.45 in 4.0 mi NNW 20.7 mph - 0.00 in   Haze
7:34 PM -2.9 °F -26.1 °F -9.0 °F 75% 30.44 in 4.0 mi NNW 20.7 mph - 0.00 in   Haze
7:53 PM -4.0 °F -27.6 °F -9.9 °F 76% 30.53 in 5.0 mi North 20.7 mph - 0.00 in   Haze
8:01 PM -4.0 °F -27.0 °F -9.9 °F 76% 30.43 in 4.0 mi North 19.6 mph - N/A   Haze
8:53 PM -4.0 °F -27.0 °F -9.9 °F 76% 30.53 in 6.0 mi North 19.6 mph - N/A   Haze
9:26 PM -4.0 °F -27.0 °F -9.9 °F 76% 30.45 in 5.0 mi NNW 19.6 mph - N/A   Haze
9:53 PM -5.1 °F -27.8 °F -11.0 °F 76% 30.56 in 7.0 mi NNW 18.4 mph - N/A   Overcast
10:53 PM -6.0 °F -27.0 °F -11.9 °F 75% 30.56 in 10.0 mi NNW 15.0 mph - N/A   Mostly Cloudy
11:53 PM -7.1 °F -29.8 °F -13.0 °F 75% 30.58 in 10.0 mi NW 17.3 mph - N/A   Mostly Cloudy